Weather in Almenevo

Russia / Kurgan Oblast     54°56′39″N   63°34′49″E
temp.,
°C
wind,
m/s
gust,
m/s
humid.,
%
clouds,
%
prec.,
mm/h
press.,
hPa
HPBL,
m
17 may, mon
mon1723:00+22w334130 0.3 101823
02:00+19wsw465274 0.0 101978
05:00+18w410576 0.0 1020156
08:00+24w45455 0.0 1019236
11:00+29w45303 0.0 10191209
14:00+31w68215 0.0 10173579
17:00+23n91249100 0.6 1018318
20:00+22s46535 0.5 101679
18 may, tue
tue1823:00+20wsw33522 0.5 101637
02:00+18wnw345776 0.0 101648
05:00+17wnw336991 0.0 101538
08:00+20wnw51162100 0.0 1015379
11:00+24nw6848100 0.0 10141164
14:00+27nw79322 0.0 10142625
17:00+23nne1011517 0.0 1014820
20:00+19nne6115935 0.1 10161062
19 may, wed
wed1923:00+14nne811712 0.1 1020716
02:00+10nne611796 0.0 1021605
05:00+9nne512790 0.0 1023460
08:00+13ne69590 0.0 1024795
11:00+17ne673987 0.0 10241357
14:00+19ne45335 0.0 10241698
17:00+20nne45325 0.0 10231743
20:00+16n365099 0.0 1024117
20 may, thu
thu2023:00+13ene22535 0.0 102416
02:00+12ssw225817 0.0 102511
05:00+11wsw33615 0.0 102530
08:00+16wsw354614 0.0 1025378
11:00+21w44355 0.0 10241328
14:00+24w44290 0.0 10221630
17:00+24w45270 0.0 10211726
20:00+20w33420 0.0 102031
21 may, fri
fri2123:00+17wsw45420 0.0 102053
02:00+15w46460 0.0 102075
05:00+14w46520 0.0 102072
08:00+20wnw45470 0.0 1020275
11:00+25nw34345 0.0 10191057
14:00+27nw33275 0.0 10181984
17:00+27nw34263 0.0 10182144
20:00+23nw33433 0.0 101825